Weather History for Budapest Ferihegy, Hungary

Change the Weather History Date:

Wednesday, April 24, 2013

  Actual Average Record
Temperature  
Mean Temperature 58 °F -  
Max Temperature 75 °F 68 °F 75 °F (2013)
Min Temperature 41 °F 45 °F 30 °F (1997)
Degree Days  
Heating Degree Days 7    
Growing Degree Days 8 (Base 50)    
Moisture  
Dew Point 44 °F    
Average Humidity 60    
Maximum Humidity 100    
Minimum Humidity 27    
Precipitation  
Precipitation 0.00 in - - ()
Sea Level Pressure  
Sea Level Pressure 30.28 in    
Wind  
Wind Speed 4 mph ()    
Max Wind Speed 12 mph    
Max Gust Speed 18 mph    
Averages and records for this station are not official NWS values.
T = Trace of Precipitation, MM = Missing Value Source: Averaged Metar Reports

Daily Weather History Graph

Daily Weather History Graph

Search for Another Location

Airport:

Trip Planner

Search our weather history database for the weather conditions in past years. The results will help you decide how hot, cold, wet, or windy it might be!

Date:

Astronomy

Apr. 24, 2013 Rise Set
Actual Time 5:38 AM CEST 7:44 PM CEST
Civil Twilight 5:04 AM CEST 8:18 PM CEST
Nautical Twilight 4:23 AM CEST 8:59 PM CEST
Astronomical Twilight 3:37 AM CEST 9:46 PM CEST
Moon 6:23 PM CEST (4/24) 4:37 AM CEST (4/24)
Length of Visible Light 15h 13m
Length of Day
14h 06m
Waxing Gibbous, 97% of the Moon is Illuminated
Apr 24
Waxing Gibbous
Apr 25
Full
May 2
Last Quarter
May 10
New
May 18
First Quarter

Hourly Weather History & Observations

Time (CEST) Temp. Windchill Dew Point Humidity Pressure Visibility Wind Dir Wind Speed Gust Speed Precip Events Conditions
12:00 AM 55.4 °F - 44.6 °F 67% 30.24 in - Variable 2.3 mph - N/A   Clear
12:30 AM 48.2 °F - 42.8 °F 82% 30.24 in - Calm Calm - N/A   Clear
1:00 AM 48.2 °F - 44.6 °F 87% 30.24 in - Variable 2.3 mph - N/A   Clear
1:30 AM 48.2 °F - 44.6 °F 87% 30.24 in - Variable 1.2 mph - N/A   Clear
2:00 AM 46.4 °F - 42.8 °F 87% 30.24 in - Variable 2.3 mph - N/A   Clear
2:30 AM 46.4 °F - 44.6 °F 93% 30.24 in - Variable 2.3 mph - N/A   Clear
3:00 AM 44.6 °F - 42.8 °F 93% 30.24 in - Variable 2.3 mph - N/A   Clear
3:30 AM 44.6 °F - 42.8 °F 93% 30.27 in - Variable 2.3 mph - N/A   Clear
4:00 AM 44.6 °F - 44.6 °F 100% 30.27 in - Variable 2.3 mph - N/A   Clear
4:30 AM 42.8 °F - 41.0 °F 93% 30.27 in - Variable 2.3 mph - N/A   Clear
5:00 AM 42.8 °F 41.1 °F 42.8 °F 100% 30.27 in - Variable 3.5 mph - N/A   Clear
5:30 AM 42.8 °F - 42.8 °F 100% 30.27 in - Variable 2.3 mph - N/A   Clear
6:00 AM 41.0 °F - 41.0 °F 100% 30.27 in - Variable 2.3 mph - N/A   Clear
6:30 AM 46.4 °F - 44.6 °F 93% 30.30 in - Variable 2.3 mph - N/A   Clear
7:00 AM 48.2 °F - 46.4 °F 93% 30.30 in - Variable 2.3 mph - N/A   Clear
7:30 AM 53.6 °F - 48.2 °F 82% 30.33 in - Variable 1.2 mph - N/A   Clear
8:00 AM 57.2 °F - 48.2 °F 72% 30.33 in - Calm Calm - N/A   Clear
8:30 AM 59.0 °F - 48.2 °F 67% 30.33 in - Variable 1.2 mph - N/A   Clear
9:00 AM 64.4 °F - 50.0 °F 59% 30.33 in - Variable 2.3 mph - N/A   Clear
9:30 AM 64.4 °F - 48.2 °F 56% 30.33 in - Variable 2.3 mph - N/A   Clear
10:00 AM 66.2 °F - 48.2 °F 52% 30.33 in - SW 4.6 mph - N/A   Clear
10:30 AM 68.0 °F - 50.0 °F 52% 30.33 in - SSW 5.8 mph - N/A   Clear
11:00 AM 69.8 °F - 48.2 °F 46% 30.33 in - SW 4.6 mph - N/A   Clear
11:30 AM 71.6 °F - 48.2 °F 43% 30.33 in - SSW 8.1 mph - N/A   Clear
12:00 PM 73.4 °F - 50.0 °F 44% 30.33 in - SSW 9.2 mph - N/A   Clear
12:30 PM 71.6 °F - 41.0 °F 33% 30.33 in - SW 11.5 mph - N/A   Clear
1:00 PM 73.4 °F - 44.6 °F 36% 30.33 in - SW 11.5 mph - N/A   Clear
1:30 PM 73.4 °F - 46.4 °F 38% 30.33 in - SW 10.4 mph - N/A   Clear
2:00 PM 75.2 °F - 48.2 °F 38% 30.30 in - WSW 6.9 mph 18.4 mph N/A   Clear
2:30 PM 75.2 °F - 44.6 °F 34% 30.30 in - WSW 10.4 mph - N/A   Clear
3:00 PM 73.4 °F - 41.0 °F 31% 30.30 in - SW 11.5 mph - N/A   Clear
3:30 PM 75.2 °F - 41.0 °F 29% 30.27 in - SW 11.5 mph - N/A   Clear
4:00 PM 75.2 °F - 39.2 °F 27% 30.27 in - SW 9.2 mph - N/A   Clear
4:30 PM 73.4 °F - 42.8 °F 33% 30.27 in - WSW 10.4 mph - N/A   Clear
5:00 PM 75.2 °F - 44.6 °F 34% 30.27 in - SW 10.4 mph - N/A   Clear
5:30 PM 75.2 °F - 42.8 °F 31% 30.24 in - SSW 9.2 mph - N/A   Clear
6:00 PM 73.4 °F - 42.8 °F 33% 30.24 in - SW 11.5 mph - N/A   Clear
6:30 PM 73.4 °F - 41.0 °F 31% 30.24 in - SW 10.4 mph - N/A   Clear
7:00 PM 71.6 °F - 39.2 °F 31% 30.27 in - SW 10.4 mph - N/A   Clear
7:30 PM 69.8 °F - 39.2 °F 33% 30.27 in - SW 9.2 mph - N/A   Clear
8:00 PM 66.2 °F - 39.2 °F 37% 30.27 in - SW 8.1 mph - N/A   Clear
8:30 PM 64.4 °F - 41.0 °F 42% 30.27 in - SW 6.9 mph - N/A   Clear
9:00 PM 60.8 °F - 41.0 °F 48% 30.27 in - Variable 3.5 mph - N/A   Clear
9:30 PM 60.8 °F - 41.0 °F 48% 30.27 in - Calm Calm - N/A   Clear
10:00 PM 57.2 °F - 42.8 °F 59% 30.27 in - Variable 1.2 mph - N/A   Clear
10:30 PM 53.6 °F - 41.0 °F 62% 30.27 in - Variable 1.2 mph - N/A   Clear
11:00 PM 51.8 °F - 41.0 °F 67% 30.27 in - Variable 2.3 mph - N/A   Clear
11:30 PM 51.8 °F - 42.8 °F 71% 30.27 in - Variable 1.2 mph - N/A   Clear